FENGYUN 1C DEB, 32322

Orbit data source: Space-Track

FENGYUN 1C DEB, 32322 is space debris in SSO originally from a launch on Mon, 10 May 1999 UTC launched from the Taiyaun Space Center, China (TSC). Fengyun 1C debris stems from the Chinese weather satellite Fengyun-1C, which was intentionally destroyed by a Chinese anti-satellite missile in 2007. This event dramatically increased the amount of space debris, with thousands of trackable fragments posing hazards to satellites and human spaceflight. The Fengyun 1C debris cloud has become a focal point in discussions about space sustainability and the need for international regulations to prevent the creation of new debris.

Loading next visibility...
Identifier
32322, 1999-025CXP
Orbit
SSO
Country
Flag of CNCN / PRC
Related business
Manufacturer
Unknown
Mission
Spacecraft
Bus & Motor
Unknown
Mass
Unknown
Launch date (UTC)
1999-05-10 (27 years ago)
Launch vehicle
Unknown
Launch site
Taiyaun Space Center, China (TSC)
Object type
Payload
Rocket body
Debris
Shape & HBR
Unknown shape, 0.1 m
Radar Cross Section
Medium (>0.1 m² and <1 m²)

Expand to show TLE details & history
Last TLE update: 1 week ago

TLE from 1 week ago
0 FENGYUN 1C DEB
1 32322U 99025CXP 26159.81591424  .00000644  00000-0  82250-3 0  9998
2 32322  98.3514  14.9734 0419663   8.4147 352.3743 13.34441118627546
Epoch: 2026-06-08T19:34Z
TLE epoch observation values (Epoch: 2026-06-08T19:34:54.990Z)
Latitude
-0.00004°
Longitude
-175.95307°
Altitude
820.756 km
Speed
7.596 km/s
True Right ascension
00h 59m 53s
True Declination
0° 00' 00"
Sunlit
Object was in daylight at epoch
Visualization orbit readout
Latitude
Unknown
Longitude
Unknown
Altitude
Unknown
Speed
Unknown
Apparent Right ascension
Unknown
Apparent Declination
Unknown
Sunlit
N/A
Visualization observer readout
Local Sidereal Time
02:07:25
Azimuth
Unknown
Elevation
Unknown
Doppler factor
Unknown
Orbital elements
Apogee altitude
1,442.285 km
Perigee altitude
812.333 km
Semi-major axis
7,505.446 km
Eccentricity
0.04197
Inclination
98.3514°
RAAN
14.9734°
Arg. of periapsis
8.4147°
True anomaly
351.70124°
Mean anomaly
352.3743°
Eccentric anomaly
352.04138°
Mean motion
3.33794 °/min
Orbital period
107.85 mins
BSTAR
0.0008225
Loading maneuver chart data...
Computing Atmospheric mass density...

Documentation

Showing up to 5 results
|